Погода в Ташкиновой

Россия / Челябинская область     56°09′23″N   59°12′12″E
темп.,
°C
ветер,
м/с
пор.,
м/с
влажн.,
%
обл.,
%
осадки,
мм/ч
давл.,
гПа
погр.,
м
24 сентября, пт
пт2423:00+3вюв22755 0.0 102926
02:00+2вюв227782 0.0 102821
05:00+2юв227866 0.0 102822
08:00+3юв1175100 0.0 102835
11:00+10ююв1255100 0.0 1027273
14:00+13ююв2248100 0.0 1026622
17:00+13юв2352100 0.0 1025362
20:00+7в2172100 0.0 102510
25 сентября, сб
сб2523:00+6в227139 0.0 102417
02:00+4вюв22665 0.0 102413
05:00+3в116717 0.0 102310
08:00+4вюв236319 0.0 102278
11:00+11юв594088 0.0 1020481
14:00+15юв573173 0.0 1018957
17:00+13юв51038100 0.0 1018806
20:00+10вюв51343100 0.0 1018560
26 сентября, вс
вс2623:00+9вюв41344100 0.0 1019410
02:00+9вюв31045100 0.0 1019349
05:00+9вюв61446100 0.0 1017602
08:00+7вюв61653100 0.0 1018640
11:00+6вюв71577100 0.7 1018720
14:00+6вюв61386100 1.7 1019970
17:00+7вюв61483100 3.1 1018869
20:00+6вюв71290100 2.4 1019942
27 сентября, пн
пн2723:00+4вюв71469100 3.0 1020823
02:00+3в61465100 0.0 1019638
05:00+2в61462100 0.1 1020756
08:00+2в71570100 0.0 1020757
11:00+4в71558100 0.1 1020938
14:00+7в8134687 0.0 10201119
17:00+6всв713495 0.0 10211372
20:00+3всв613605 0.0 10221119
28 сентября, вт
вт2823:00+1всв613715 0.0 1023790
02:000всв5128122 0.0 1024680
05:00+1всв5970100 0.0 1024929
08:00+1св496990 0.0 10241152
11:00+3всв5858100 0.0 10241302
14:00+4св5653100 0.0 10231412
17:00+3ссв4658100 0.0 10231236
20:00+2ссв386799 0.0 1024537